Flag for Faroe Islands Weather past 2 weeks in Klaksvík, Faroe Islands, Faroe Islands

Now
47 °F

Cool.


Feels Like: 46 °F
Forecast: 42 / 53 °F
Wind: 3 mph from East

Location: Thorshavn

Current Time: Jul 30, 2015 at 9:41:59 PM

Latest Report: Jul 30, 2015 at 8:00 PM


Visibility: N/A

Pressure: 29.98 "Hg

Humidity: 82%

Dew point: 42 °F

Location of KlaksvíkLocation

Historic Weather in Klaksvík — Graph

°F

Klaksvík temperature yesterday

Maximum temperature yesterday: 53 °F (at 5:00 PM)
Minimum temperature yesterday: 45 °F (at 5:00 AM)
Average temperature yesterday: 48 °F

Past Weeks' High & Low Weather Summary

 TemperatureHumidityPressure
High56 °F (Jul 16, 4:00 PM)100% (Jul 17, 2:00 AM)30.12 "Hg (Jul 17, 2:00 AM)
Low45 °F (Jul 29, 5:00 AM)57% (Jul 25, 4:00 PM)29.50 "Hg (Jul 21, 6:00 AM)
Average50 °F83%29.80 "Hg
* Reported Jul 15 8:00 PM — Jul 30 8:00 PM, Klaksvík, Weather by CustomWeather, © 2015

Note: Actual official high and low records may vary slightly from our data, if they occured in-between our weather recording intervals... More about our weather records

Advertising

Klaksvík weather history for previous 24 hours

 ConditionsComfort  
Time TempWeatherWind HumidityBarometerVisibility
8:00 PM
Thu, Jul 30
47 °FCool.3 mph82%29.98 "HgN/A
7:00 PM47 °FCool.8 mph84%29.98 "HgN/A
6:00 PM47 °FCool.6 mph83%29.98 "HgN/A
5:00 PM47 °FCool.7 mph84%29.99 "HgN/A
4:00 PM48 °FCool.7 mph81%30.00 "HgN/A
3:00 PM48 °FCool.8 mph79%30.00 "HgN/A
2:00 PM50 °FCool.6 mph69%30.00 "HgN/A
1:00 PM49 °FCool.6 mph67%30.00 "HgN/A
12:00 PM49 °FCool.5 mph69%30.00 "HgN/A
11:00 AM48 °FCool.8 mph69%30.01 "HgN/A
10:00 AM48 °FCool.3 mph69%30.00 "HgN/A
9:00 AM47 °FCool.3 mph70%30.00 "HgN/A
8:00 AM46 °FCool.6 mph72%30.00 "HgN/A
7:00 AM46 °FCool.8 mph73%30.00 "HgN/A
6:00 AM45 °FCool.7 mph75%30.01 "HgN/A
5:00 AM45 °FCool.8 mph75%30.01 "HgN/A
4:00 AM45 °FCool.8 mph75%30.01 "HgN/A
3:00 AM45 °FCool.6 mph79%30.02 "HgN/A
2:00 AM45 °FCool.8 mph78%30.02 "HgN/A
1:00 AM46 °FCool.8 mph75%30.02 "HgN/A
12:00 AM46 °FCool.7 mph75%30.02 "HgN/A
11:00 PM
Wed, Jul 29
46 °FCool.8 mph74%30.02 "HgN/A
10:00 PM46 °FCool.9 mph73%30.01 "HgN/A
9:00 PM47 °FCool.12 mph74%30.01 "HgN/A
Weather by CustomWeather, © 2015

See weather overviewHow to use our weather pages